sat.trackr.live / text

‹ back to catalog

QIANFAN-48

NORAD 62249 · 2024-232N

PAYLOAD ACTIVE UNKNOWN

§ Identity

Operator
Country
PRC
Launch date
2024-12-05
Launch site
TAISC
Launch vehicle
Mass (kg)
RCS (m²)

External: N2YO · Heavens-Above · Gunter

§ Orbital elements

Epoch: 2026-05-25T03:53:52.095264Z

Period
106.59 min
Inclination
89.0101°
Eccentricity
0.0019116
Mean motion
13.51008974 rev/d
Perigee alt
1,054.3 km
Apogee alt
1,082.8 km
Semi-major
7,446.7 km
B*
1.4390e-4
RAAN
24.7999°
Arg perigee
87.4573°
Mean anomaly
272.8766°
Rev number
12,131

§ Raw data

QIANFAN-481 62249U 24232N   26145.16240851  .00000105  00000+0  14390-3 0  99962 62249  89.0101  24.7999 0019116  87.4573 272.8766 13.51008974121310

JSON: /api/v1/satellites/62249 · /tle

For live sub-satellite position, see the globe view (requires WebGL).

§ Visibility from observer

Set your observer location to see the next 7 days of passes ≥ 10°. The values pass through the URL so the page stays shareable.

No JS? Fill the form by hand. The geolocation button needs JavaScript.